Omaha, IA

8:20 AM CDT on October 18, 2017 (GMT -0500)
Eppley Airfield

Weather History for KOMA - March, 2013

Change the Weather History Date:

Saturday, March 23, 2013

  Actual Average Record
Temperature  
Mean Temperature 34 °F 42 °F  
Max Temperature 39 °F 54 °F 87 °F (1910)
Min Temperature 28 °F 31 °F 10 °F (1965)
Degree Days  
Heating Degree Days 31 23  
Month to date heating degree days 743 625  
Since 1 July heating degree days 5224 5423  
Cooling Degree Days 0 0  
Month to date cooling degree days 0 0  
Year to date cooling degree days 0 0  
Moisture  
Dew Point 24 °F    
Average Humidity 70    
Maximum Humidity 92    
Minimum Humidity 48    
Precipitation  
Precipitation 0.03 in 0.07 in 0.99 in (1973)
Month to date precipitation 1.69 1.34  
Year to date precipitation 2.98 2.91  
Snow  
Snow 0.40 in 0.10 in - ()
Month to date snowfall 9.9 3.4  
Since 1 July snowfall 31.3 24.6  
Snow Depth 0.00 in    
Sea Level Pressure  
Sea Level Pressure 30.10 in    
Wind  
Wind Speed 10 mph (NNE)    
Max Wind Speed 18 mph    
Max Gust Speed 23 mph    
Visibility 6 miles    
Events Snow    
T = Trace of Precipitation, MM = Missing Value Source: NWS Daily Summary

Daily Weather History Graph

Daily Weather History Graph

Search for Another Location

Airport or City:

Trip Planner

Search our weather history database for the weather conditions in past years. The results will help you decide how hot, cold, wet, or windy it might be!

Date:

Astronomy

Mar. 23, 2013 Rise Set
Actual Time 7:21 AM CDT 7:39 PM CDT
Civil Twilight 6:53 AM CDT 8:06 PM CDT
Nautical Twilight 6:21 AM CDT 8:39 PM CDT
Astronomical Twilight 5:48 AM CDT 9:12 PM CDT
Moon 4:05 PM CDT (3/23) 5:00 AM CDT (3/23)
Length of Visible Light 13h 13m
Length of Day
12h 17m
Waxing Gibbous, 85% of the Moon is Illuminated
Mar 23
Waxing Gibbous
Mar 27
Full
Apr 2
Last Quarter
Apr 10
New
Apr 18
First Quarter

Hourly Weather History & Observations

Time (CDT) Temp. Windchill Dew Point Humidity Pressure Visibility Wind Dir Wind Speed Gust Speed Precip Events Conditions
12:52 AM 33.1 °F 28.7 °F 21.9 °F 64% 30.08 in 10.0 mi East 4.6 mph - N/A   Overcast
1:52 AM 33.1 °F 26.1 °F 23.0 °F 66% 30.09 in 10.0 mi ENE 8.1 mph - N/A   Overcast
2:52 AM 32.0 °F 27.5 °F 21.9 °F 66% 30.11 in 10.0 mi East 4.6 mph - N/A   Overcast
3:52 AM 32.0 °F 24.8 °F 23.0 °F 69% 30.08 in 10.0 mi ENE 8.1 mph - N/A   Overcast
4:52 AM 32.0 °F 27.5 °F 24.1 °F 73% 30.08 in 10.0 mi NE 4.6 mph - N/A   Overcast
5:52 AM 30.9 °F 26.2 °F 24.1 °F 76% 30.11 in 10.0 mi NW 4.6 mph - N/A   Overcast
6:52 AM 30.9 °F 26.2 °F 25.0 °F 79% 30.12 in 10.0 mi North 4.6 mph - N/A   Overcast
7:52 AM 30.0 °F 25.2 °F 24.1 °F 79% 30.13 in 9.0 mi North 4.6 mph - N/A   Overcast
8:52 AM 30.0 °F 21.7 °F 24.1 °F 79% 30.13 in 7.0 mi North 9.2 mph - N/A   Mostly Cloudy
9:52 AM 32.0 °F 24.8 °F 24.1 °F 73% 30.14 in 8.0 mi North 8.1 mph - N/A   Overcast
10:52 AM 34.0 °F 26.0 °F 21.9 °F 61% 30.15 in 10.0 mi NNE 10.4 mph - N/A   Overcast
11:52 AM 35.1 °F 30.1 °F 23.0 °F 61% 30.15 in 10.0 mi Variable 5.8 mph - N/A   Overcast
12:52 PM 37.9 °F 31.5 °F 19.9 °F 48% 30.12 in 10.0 mi NE 9.2 mph 17.3 mph N/A   Overcast
1:52 PM 37.9 °F 30.0 °F 21.9 °F 53% 30.10 in 10.0 mi NE 12.7 mph 23.0 mph N/A   Overcast
2:52 PM 37.0 °F 28.1 °F 23.0 °F 57% 30.07 in 7.0 mi North 15.0 mph - 0.00 in Snow Light Snow
3:47 PM 35.6 °F 28.0 °F 24.8 °F 65% 30.04 in 3.0 mi NE 10.4 mph 20.7 mph 0.00 in Snow Light Snow
3:52 PM 35.1 °F 26.9 °F 25.0 °F 67% 30.07 in 2.0 mi NNE 11.5 mph - 0.00 in Snow Light Snow
4:01 PM 35.6 °F 27.1 °F 26.6 °F 70% 30.05 in 1.5 mi NE 12.7 mph - 0.00 in Snow Light Snow
4:52 PM 33.1 °F 24.4 °F 28.0 °F 82% 30.09 in 0.5 mi NNE 11.5 mph - 0.00 in Snow Snow
5:52 PM 32.0 °F 22.1 °F 28.0 °F 85% 30.09 in 0.8 mi NNE 13.8 mph - 0.01 in Snow Light Snow
6:52 PM 30.9 °F 21.2 °F 28.0 °F 89% 30.10 in 0.8 mi North 12.7 mph - 0.01 in Snow Light Snow
7:42 PM 30.2 °F 20.2 °F 26.6 °F 86% 30.09 in 0.8 mi North 12.7 mph - 0.00 in Snow Light Snow
7:52 PM 30.0 °F 20.5 °F 27.0 °F 88% 30.13 in 0.8 mi North 11.5 mph - 0.00 in Snow Light Snow
8:19 PM 30.2 °F 21.3 °F 26.6 °F 86% 30.10 in 1.0 mi North 10.4 mph - 0.01 in Snow Light Snow
8:52 PM 30.0 °F 19.1 °F 25.0 °F 82% 30.13 in 1.2 mi North 15.0 mph - 0.01 in Snow Light Snow
9:10 PM 28.4 °F 18.0 °F 24.8 °F 86% 30.10 in 2.0 mi NNE 12.7 mph - 0.00 in Snow Light Snow
9:35 PM 28.4 °F 18.0 °F 24.8 °F 86% 30.09 in 3.0 mi NNE 12.7 mph - 0.00 in Snow Light Snow
9:52 PM 28.9 °F 18.6 °F 25.0 °F 85% 30.12 in 3.0 mi NNE 12.7 mph - 0.00 in Snow Light Snow
10:52 PM 28.9 °F 18.6 °F 25.0 °F 85% 30.12 in 3.0 mi North 12.7 mph - 0.00 in Snow Light Snow
11:52 PM 28.0 °F 18.1 °F 25.0 °F 88% 30.11 in 7.0 mi North 11.5 mph - 0.00 in   Mostly Cloudy